Location: Coopersdale
(40.3556°N, 78.9372°W)
Time: 09:48:11
(UTC+00:00)

Envisat - Pass Details

Date: 25 November 2020
Orbit: 764 x 766 km, 98.1° (Epoch: 15 January)

Event Time Altitude Azimuth Distance (km) Brightness Sun altitude
Rises 23:37:37 0° 210° (SSW) 3,219 6.8 -19.8°
Reaches altitude 10° 23:40:49 10° 232° (SW) 2,299 6.4 -20.4°
Maximum altitude 23:43:50 16° 269° (W) 1,928 6.1 -21.0°
Drops below altitude 10° 23:46:53 10° 306° (NW) 2,309 6.1 -21.5°
Sets 23:50:09 0° 328° (NNW) 3,241 6.5 -22.2°
